Regional Weather Roundup
Issued by NWS

Home | Current Version | Previous Version | Graphics & Text | Print | Product List | Glossary On
Versions: 1 2 3 4 5 6 7 8 9 10 11 12 13 14 15 16 17 18 19 20 21 22 23 24 25 26 27 28 29 30 31 32 33 34 35 36 37 38 39 40 41 42 43 44 45 46 47 48 49 50
791
ASUS44 KLIX 152301
RWRLA
LOUISIANA WEATHER ROUNDUP
NATIONAL WEATHER SERVICE NEW ORLEANS LA
600 PM CDT MON SEP 15 2014

NOTE: "FAIR" INDICATES FEW OR NO CLOUDS BELOW 12,000 FEET WITH NO
      SIGNIFICANT WEATHER AND/OR OBSTRUCTIONS TO VISIBILITY.
      SKY/WX - SKY CONDITION AND SIGNIFICANT WEATHER.
      TMP - AIR TEMPERATURE.    DP   - DEWPOINT TEMPERATURE.
      RH  - RELATIVE HUMIDITY.  PRES - PRESSURE.
      HX  - HEAT INDEX.         WCI  - WIND CHILL INDEX.

*  THESE STATIONS ARE NOT NWS OR FAA STATIONS AND ARE NOT UNDER
   NWS QUALITY CONTROL.

LAZ040-048-061>063-065-066-069-160000-
SOUTHEAST LOUISIANA

CITY           SKY/WX    TMP DP  RH WIND       PRES   REMARKS
N.O. AUDUBON   NOT AVBL
N.O. INTL ARPT CLOUDY    79  75  87 SE6       30.05S
N.O. LAKEFRONT CLOUDY    82  75  79 S7        30.06R
N.O. DOWNTOWN* FAIR      84  72  65 S5        30.06S
SLIDELL        CLOUDY    84  75  74 CALM      30.04S
BATON ROUGE    HVY RAIN  78  75  90 S18G26    30.06R FOG
BOOTHVILLE     PTSUNNY   83  76  79 SW6       30.06S
BELLE CHASSE   CLOUDY    82  74  76 S5        30.05S
BOGALUSA*      FAIR      89  73  59 SW6       30.06R HX  97
GALLIANO*      NOT AVBL
NEW ROADS*     FAIR      89  73  58 SE3       30.04S HX  97
GONZALES*      MOCLDY    77  77 100 CALM      30.05S
HAMMOND*       NOT AVBL
HOUMA*         MOSUNNY   84  73  70 S5        30.05R
PORT FOURCHON* PTCLDY    86  73  66 SW5       30.09R

$$

LAZ041-044-053-054-160000-
SOUTHWEST LOUISIANA

CITY           SKY/WX    TMP DP  RH WIND       PRES   REMARKS
LAKE CHARLES   CLOUDY    86  76  71 S6        30.02S HX  96
LAFAYETTE      CLOUDY    82  76  81 NE14G21   30.05R THUNDER
PATTERSON      PTSUNNY   82  77  83 SE8       30.08R
SALT POINT       N/A     89  78  70 SE5       30.04R HX 103
NEW IBERIA     CLOUDY    83  72  69 NE16G24   30.04S THUNDER
CHENAULT AIRPK PTSUNNY   90  72  55 E3        30.03S HX  96

$$

LAZ027-028-160000-
CENTRAL LOUISIANA

CITY           SKY/WX    TMP DP  RH WIND       PRES   REMARKS
FORT POLK      PTSUNNY   84  74  71 NE6       30.05S
ALEXANDRIA INT PTSUNNY   85  75  72 N6        30.03S
ALEXANDRIA     PTSUNNY   87  75  67 NE3       30.05S HX  96

$$

LAZ001-002-160000-
NORTHWEST LOUISIANA

CITY           SKY/WX    TMP DP  RH WIND       PRES   REMARKS
SHREVEPORT     CLOUDY    83  70  64 E7        30.07F
BARKSDALE AFB  PTSUNNY   82  69  64 NE5       30.09R
DTN SHREVEPORT PTSUNNY   82  70  66 E3        30.08S

$$

LAZ014-016-160000-
NORTHEAST LOUISIANA

CITY           SKY/WX    TMP DP  RH WIND       PRES   REMARKS
MONROE         CLOUDY    83  72  69 N7        30.09R
TALLULAH       PTSUNNY   87  70  56 N7        30.07R

$$




USA.gov is the U.S. government's official web portal to all federal, state and local government web resources and services.